Time,TemperatureF,DewpointF,PressureIn,WindDirection,WindDirectionDegrees,WindSpeedMPH,WindSpeedGustMPH,Humidity,HourlyPrecipIn,Conditions,Clouds,dailyrainin,SoftwareType,DateUTC
2013-05-19 00:01:00,62.1,56.8,29.89,ESE,112,0.0,3.8,83,0.00,,,0.00,WUHU21623XXSP,2013-05-19 05:01:00,
2013-05-19 00:06:00,61.9,56.6,29.89,ENE,67,0.0,3.8,83,0.00,,,0.00,WUHU21623XXSP,2013-05-19 05:06:00,
2013-05-19 00:11:00,61.7,56.5,29.89,SE,135,0.0,1.1,83,0.00,,,0.00,WUHU21623XXSP,2013-05-19 05:11:00,
2013-05-19 00:16:00,61.7,56.5,29.89,SE,135,0.0,2.2,83,0.00,,,0.00,WUHU21623XXSP,2013-05-19 05:16:00,
2013-05-19 00:21:00,61.7,56.8,29.89,ESE,112,0.0,2.2,84,0.00,,,0.00,WUHU21623XXSP,2013-05-19 05:21:00,
2013-05-19 00:26:00,61.5,56.6,29.89,SSW,202,0.0,0.7,84,0.00,,,0.00,WUHU21623XXSP,2013-05-19 05:26:00,
2013-05-19 00:31:00,61.5,56.6,29.88,ESE,112,0.0,1.3,84,0.00,,,0.00,WUHU21623XXSP,2013-05-19 05:31:00,
2013-05-19 00:36:00,61.5,56.6,29.88,SE,135,0.0,1.8,84,0.00,,,0.00,WUHU21623XXSP,2013-05-19 05:36:00,
2013-05-19 00:41:00,61.7,56.8,29.88,WSW,247,0.0,2.2,84,0.00,,,0.00,WUHU21623XXSP,2013-05-19 05:41:00,
2013-05-19 00:46:00,61.9,57.0,29.88,ESE,112,0.0,2.2,84,0.00,,,0.00,WUHU21623XXSP,2013-05-19 05:46:00,
2013-05-19 00:51:00,61.9,57.0,29.88,SSE,157,0.0,2.9,84,0.00,,,0.00,WUHU21623XXSP,2013-05-19 05:51:00,
2013-05-19 00:56:00,61.7,56.8,29.88,South,180,0.0,2.9,84,0.00,,,0.00,WUHU21623XXSP,2013-05-19 05:56:00,
2013-05-19 01:01:00,61.5,56.6,29.88,SSW,202,0.0,2.5,84,0.00,,,0.00,WUHU21623XXSP,2013-05-19 06:01:00,
2013-05-19 01:06:00,61.5,56.6,29.88,South,180,0.0,2.7,84,0.00,,,0.00,WUHU21623XXSP,2013-05-19 06:06:00,
2013-05-19 01:11:00,61.3,56.5,29.88,SW,225,1.6,2.7,84,0.00,,,0.00,WUHU21623XXSP,2013-05-19 06:11:00,
2013-05-19 01:16:00,61.2,56.3,29.88,SSW,202,0.0,2.2,84,0.00,,,0.00,WUHU21623XXSP,2013-05-19 06:16:00,
2013-05-19 01:21:00,61.2,56.6,29.88,South,180,0.0,2.0,85,0.00,,,0.00,WUHU21623XXSP,2013-05-19 06:21:00,
2013-05-19 01:26:00,61.2,56.6,29.88,South,180,0.0,2.9,85,0.00,,,0.00,WUHU21623XXSP,2013-05-19 06:26:00,
2013-05-19 01:31:00,61.2,56.6,29.88,South,180,0.0,2.9,85,0.00,,,0.00,WUHU21623XXSP,2013-05-19 06:31:00,
2013-05-19 01:36:00,61.0,56.5,29.88,SE,135,0.0,2.2,85,0.00,,,0.00,WUHU21623XXSP,2013-05-19 06:36:00,
2013-05-19 01:41:00,61.0,56.5,29.87,SSE,157,0.0,1.3,85,0.00,,,0.00,WUHU21623XXSP,2013-05-19 06:41:00,
2013-05-19 01:46:00,60.6,56.1,29.88,East,90,0.0,3.1,85,0.00,,,0.00,WUHU21623XXSP,2013-05-19 06:46:00,
2013-05-19 01:51:00,60.6,56.1,29.88,SSE,157,4.0,4.0,85,0.00,,,0.00,WUHU21623XXSP,2013-05-19 06:51:00,
2013-05-19 01:56:00,60.6,56.1,29.88,South,180,0.0,4.0,85,0.00,,,0.00,WUHU21623XXSP,2013-05-19 06:56:00,
2013-05-19 02:01:00,60.8,56.3,29.88,SSW,202,0.0,4.5,85,0.00,,,0.00,WUHU21623XXSP,2013-05-19 07:01:00,
2013-05-19 02:06:00,61.0,56.5,29.88,ENE,67,0.0,4.5,85,0.00,,,0.00,WUHU21623XXSP,2013-05-19 07:06:00,
2013-05-19 02:11:00,61.0,56.8,29.87,SE,135,0.0,1.3,86,0.00,,,0.00,WUHU21623XXSP,2013-05-19 07:11:00,
2013-05-19 02:16:00,61.3,56.8,29.87,SE,135,0.0,1.6,85,0.00,,,0.00,WUHU21623XXSP,2013-05-19 07:16:00,
2013-05-19 02:21:00,61.2,56.6,29.88,East,90,0.0,1.6,85,0.00,,,0.00,WUHU21623XXSP,2013-05-19 07:21:00,
2013-05-19 02:26:00,61.2,56.6,29.88,ESE,112,0.0,0.0,85,0.00,,,0.00,WUHU21623XXSP,2013-05-19 07:26:00,
2013-05-19 02:31:00,61.0,56.8,29.87,East,90,0.0,0.0,86,0.00,,,0.00,WUHU21623XXSP,2013-05-19 07:31:00,
2013-05-19 02:36:00,61.0,56.8,29.87,ESE,112,0.0,0.0,86,0.00,,,0.00,WUHU21623XXSP,2013-05-19 07:36:00,
2013-05-19 02:41:00,60.6,56.4,29.87,SE,135,0.0,0.0,86,0.00,,,0.00,WUHU21623XXSP,2013-05-19 07:41:00,
2013-05-19 02:46:00,61.0,56.8,29.86,South,180,0.0,1.8,86,0.00,,,0.00,WUHU21623XXSP,2013-05-19 07:46:00,
2013-05-19 02:51:00,61.3,56.8,29.86,SSE,157,0.0,2.0,85,0.00,,,0.00,WUHU21623XXSP,2013-05-19 07:51:00,
2013-05-19 02:56:00,61.0,56.8,29.87,SSE,157,0.0,2.0,86,0.00,,,0.00,WUHU21623XXSP,2013-05-19 07:56:00,
2013-05-19 03:01:00,61.0,56.5,29.87,South,180,0.0,2.9,85,0.00,,,0.00,WUHU21623XXSP,2013-05-19 08:01:00,
2013-05-19 03:06:00,61.0,56.5,29.87,SW,225,1.8,2.9,85,0.00,,,0.00,WUHU21623XXSP,2013-05-19 08:06:00,
2013-05-19 03:11:00,61.2,56.6,29.87,South,180,1.3,2.5,85,0.00,,,0.00,WUHU21623XXSP,2013-05-19 08:11:00,
2013-05-19 03:16:00,61.7,57.1,29.87,SSE,157,1.1,4.0,85,0.00,,,0.00,WUHU21623XXSP,2013-05-19 08:16:00,
2013-05-19 03:21:00,62.2,57.7,29.87,South,180,4.3,4.5,85,0.00,,,0.00,WUHU21623XXSP,2013-05-19 08:21:00,
2013-05-19 03:26:00,62.4,57.5,29.87,South,180,5.6,6.3,84,0.00,,,0.00,WUHU21623XXSP,2013-05-19 08:26:00,
2013-05-19 03:31:00,62.6,57.7,29.88,South,180,4.0,6.3,84,0.00,,,0.00,WUHU21623XXSP,2013-05-19 08:31:00,
2013-05-19 03:36:00,62.8,57.8,29.88,South,180,4.0,7.8,84,0.00,,,0.00,WUHU21623XXSP,2013-05-19 08:36:00,
2013-05-19 03:41:00,62.8,57.8,29.88,SSE,157,4.0,7.8,84,0.00,,,0.00,WUHU21623XXSP,2013-05-19 08:41:00,
2013-05-19 03:46:00,62.8,57.5,29.89,SSE,157,4.0,8.1,83,0.00,,,0.00,WUHU21623XXSP,2013-05-19 08:46:00,
2013-05-19 03:51:00,63.0,57.7,29.89,South,180,3.1,8.1,83,0.00,,,0.00,WUHU21623XXSP,2013-05-19 08:51:00,
2013-05-19 03:56:00,63.0,57.7,29.88,South,180,4.5,7.8,83,0.00,,,0.00,WUHU21623XXSP,2013-05-19 08:56:00,
2013-05-19 04:01:00,62.8,57.5,29.88,SSW,202,2.0,7.8,83,0.00,,,0.00,WUHU21623XXSP,2013-05-19 09:01:00,
2013-05-19 04:06:00,62.4,57.1,29.88,South,180,3.4,6.3,83,0.00,,,0.00,WUHU21623XXSP,2013-05-19 09:06:00,
2013-05-19 04:11:00,62.4,57.1,29.88,SSW,202,3.8,6.3,83,0.00,,,0.00,WUHU21623XXSP,2013-05-19 09:11:00,
2013-05-19 04:16:00,62.4,57.1,29.88,South,180,2.9,5.8,83,0.00,,,0.00,WUHU21623XXSP,2013-05-19 09:16:00,
2013-05-19 04:21:00,62.4,57.5,29.88,South,180,3.1,6.3,84,0.00,,,0.00,WUHU21623XXSP,2013-05-19 09:21:00,
2013-05-19 04:26:00,62.2,57.0,29.88,SSE,157,2.5,6.5,83,0.00,,,0.00,WUHU21623XXSP,2013-05-19 09:26:00,
2013-05-19 04:31:00,62.2,57.3,29.89,SSW,202,3.1,7.4,84,0.00,,,0.00,WUHU21623XXSP,2013-05-19 09:31:00,
2013-05-19 04:36:00,62.4,57.5,29.88,SSW,202,4.0,7.4,84,0.00,,,0.00,WUHU21623XXSP,2013-05-19 09:36:00,
2013-05-19 04:41:00,62.2,57.0,29.88,SW,225,1.6,6.7,83,0.00,,,0.00,WUHU21623XXSP,2013-05-19 09:41:00,
2013-05-19 04:46:00,62.2,57.0,29.88,SSE,157,1.3,6.7,83,0.00,,,0.00,WUHU21623XXSP,2013-05-19 09:46:00,
2013-05-19 04:51:00,62.1,57.1,29.88,SE,135,2.9,5.1,84,0.00,,,0.00,WUHU21623XXSP,2013-05-19 09:51:00,
2013-05-19 04:56:00,62.2,57.3,29.88,SSW,202,3.4,4.7,84,0.00,,,0.00,WUHU21623XXSP,2013-05-19 09:56:00,
2013-05-19 05:01:00,62.1,57.1,29.88,SSE,157,0.0,4.9,84,0.00,,,0.00,WUHU21623XXSP,2013-05-19 10:01:00,
2013-05-19 05:06:00,61.9,57.0,29.89,SSE,157,2.5,6.0,84,0.00,,,0.00,WUHU21623XXSP,2013-05-19 10:06:00,
2013-05-19 05:11:00,61.9,57.0,29.89,SSW,202,2.5,6.0,84,0.00,,,0.00,WUHU21623XXSP,2013-05-19 10:11:00,
2013-05-19 05:16:00,62.1,57.5,29.88,SE,135,0.0,5.1,85,0.00,,,0.00,WUHU21623XXSP,2013-05-19 10:16:00,
2013-05-19 05:21:00,61.9,57.3,29.88,South,180,0.0,5.1,85,0.00,,,0.00,WUHU21623XXSP,2013-05-19 10:21:00,
2013-05-19 05:26:00,61.7,57.1,29.87,South,180,2.2,2.7,85,0.00,,,0.00,WUHU21623XXSP,2013-05-19 10:26:00,
2013-05-19 05:31:00,61.7,57.1,29.87,SE,135,0.0,3.1,85,0.00,,,0.00,WUHU21623XXSP,2013-05-19 10:31:00,
2013-05-19 05:36:00,61.5,57.0,29.87,SE,135,0.0,3.1,85,0.00,,,0.00,WUHU21623XXSP,2013-05-19 10:36:00,
2013-05-19 05:41:00,61.2,56.6,29.86,NNE,22,0.0,2.2,85,0.00,,,0.00,WUHU21623XXSP,2013-05-19 10:41:00,
2013-05-19 05:46:00,61.0,56.8,29.86,North,0,0.0,0.7,86,0.00,,,0.00,WUHU21623XXSP,2013-05-19 10:46:00,
2013-05-19 05:51:00,61.2,57.0,29.87,SE,135,0.0,0.7,86,0.00,,,0.00,WUHU21623XXSP,2013-05-19 10:51:00,
2013-05-19 05:56:00,61.2,57.0,29.87,South,180,0.0,3.1,86,0.00,,,0.00,WUHU21623XXSP,2013-05-19 10:56:00,
2013-05-19 06:01:00,61.3,57.1,29.87,South,180,0.0,3.1,86,0.00,,,0.00,WUHU21623XXSP,2013-05-19 11:01:00,
2013-05-19 06:06:00,61.5,57.3,29.88,South,180,0.0,2.2,86,0.00,,,0.00,WUHU21623XXSP,2013-05-19 11:06:00,
2013-05-19 06:11:00,61.5,57.6,29.88,NW,315,0.0,2.2,87,0.00,,,0.00,WUHU21623XXSP,2013-05-19 11:11:00,
2013-05-19 06:16:00,61.5,57.6,29.88,SSE,157,0.0,0.0,87,0.00,,,0.00,WUHU21623XXSP,2013-05-19 11:16:00,
2013-05-19 06:21:00,61.5,57.6,29.88,SSW,202,1.1,2.0,87,0.00,,,0.00,WUHU21623XXSP,2013-05-19 11:21:00,
2013-05-19 06:26:00,62.2,58.3,29.89,SE,135,0.0,4.9,87,0.00,,,0.00,WUHU21623XXSP,2013-05-19 11:26:00,
2013-05-19 06:31:00,63.0,58.7,29.89,SSE,157,2.5,7.4,86,0.00,,,0.00,WUHU21623XXSP,2013-05-19 11:31:00,
2013-05-19 06:36:00,63.5,59.3,29.89,South,180,0.0,7.4,86,0.00,,,0.00,WUHU21623XXSP,2013-05-19 11:36:00,
2013-05-19 06:41:00,64.0,59.8,29.90,SSE,157,2.9,6.5,86,0.00,,,0.00,WUHU21623XXSP,2013-05-19 11:41:00,
2013-05-19 06:46:00,64.2,59.6,29.90,South,180,2.0,6.5,85,0.00,,,0.00,WUHU21623XXSP,2013-05-19 11:46:00,
2013-05-19 06:51:00,64.2,59.6,29.89,South,180,2.2,5.6,85,0.00,,,0.00,WUHU21623XXSP,2013-05-19 11:51:00,
2013-05-19 06:56:00,64.6,59.6,29.89,SSE,157,0.0,6.7,84,0.00,,,0.00,WUHU21623XXSP,2013-05-19 11:56:00,
2013-05-19 07:01:00,64.6,59.6,29.89,South,180,4.0,6.9,84,0.00,,,0.00,WUHU21623XXSP,2013-05-19 12:01:00,
2013-05-19 07:06:00,64.6,59.6,29.89,ENE,67,2.5,6.9,84,0.00,,,0.00,WUHU21623XXSP,2013-05-19 12:06:00,
2013-05-19 07:11:00,64.6,59.6,29.89,SW,225,4.0,7.6,84,0.00,,,0.00,WUHU21623XXSP,2013-05-19 12:11:00,
2013-05-19 07:16:00,64.8,59.8,29.89,SSW,202,4.9,7.6,84,0.00,,,0.00,WUHU21623XXSP,2013-05-19 12:16:00,
2013-05-19 07:21:00,64.9,60.0,29.89,SE,135,1.6,6.9,84,0.00,,,0.00,WUHU21623XXSP,2013-05-19 12:21:00,
2013-05-19 07:26:00,65.1,59.8,29.89,South,180,0.0,6.0,83,0.00,,,0.00,WUHU21623XXSP,2013-05-19 12:26:00,
2013-05-19 07:31:00,65.5,60.5,29.89,South,180,0.0,5.1,84,0.00,,,0.00,WUHU21623XXSP,2013-05-19 12:31:00,
2013-05-19 07:36:00,65.8,60.8,29.89,South,180,3.1,7.4,84,0.00,,,0.00,WUHU21623XXSP,2013-05-19 12:36:00,
2013-05-19 07:41:00,66.6,61.2,29.90,SSW,202,3.4,8.7,83,0.00,,,0.00,WUHU21623XXSP,2013-05-19 12:41:00,
2013-05-19 07:46:00,66.7,61.1,29.89,SSE,157,6.7,8.7,82,0.00,,,0.00,WUHU21623XXSP,2013-05-19 12:46:00,
2013-05-19 07:51:00,67.3,61.3,29.89,SSW,202,2.5,8.9,81,0.00,,,0.00,WUHU21623XXSP,2013-05-19 12:51:00,
2013-05-19 07:56:00,67.8,61.8,29.89,SE,135,4.3,8.9,81,0.00,,,0.00,WUHU21623XXSP,2013-05-19 12:56:00,
2013-05-19 08:00:00,68.4,62.0,29.88,SSW,202,5.6,8.9,80,0.00,,,0.00,WUHU21623XXSP,2013-05-19 13:00:00,
2013-05-19 08:06:00,68.9,62.5,29.88,South,180,3.8,8.9,80,0.00,,,0.00,WUHU21623XXSP,2013-05-19 13:06:00,
2013-05-19 08:10:00,69.6,62.8,29.87,SSW,202,8.3,8.3,79,0.00,,,0.00,WUHU21623XXSP,2013-05-19 13:10:00,
2013-05-19 08:15:00,70.2,62.9,29.87,SW,225,6.5,8.9,78,0.00,,,0.00,WUHU21623XXSP,2013-05-19 13:15:00,
2013-05-19 08:20:00,70.3,62.7,29.88,SSW,202,4.5,10.3,77,0.00,,,0.00,WUHU21623XXSP,2013-05-19 13:20:00,
2013-05-19 08:25:00,70.9,63.3,29.88,SSE,157,1.3,10.3,77,0.00,,,0.00,WUHU21623XXSP,2013-05-19 13:25:00,
2013-05-19 08:30:00,71.2,63.6,29.89,South,180,5.1,9.6,77,0.00,,,0.00,WUHU21623XXSP,2013-05-19 13:30:00,
2013-05-19 08:35:00,71.6,63.6,29.89,SSE,157,6.7,8.1,76,0.00,,,0.00,WUHU21623XXSP,2013-05-19 13:35:00,
2013-05-19 08:40:00,71.4,63.4,29.88,SSW,202,9.8,9.8,76,0.00,,,0.00,WUHU21623XXSP,2013-05-19 13:40:00,
2013-05-19 08:45:00,71.8,63.8,29.89,SSW,202,8.1,11.0,76,0.00,,,0.00,WUHU21623XXSP,2013-05-19 13:45:00,
2013-05-19 08:50:00,72.3,64.3,29.89,SW,225,7.2,11.6,76,0.00,,,0.00,WUHU21623XXSP,2013-05-19 13:50:00,
2013-05-19 08:55:00,72.3,64.0,29.90,SSW,202,9.2,11.6,75,0.00,,,0.00,WUHU21623XXSP,2013-05-19 13:55:00,
2013-05-19 09:00:00,72.3,63.8,29.90,SE,135,4.7,13.9,75,0.00,,,0.00,WUHU21623XXSP,2013-05-19 14:00:00,
2013-05-19 09:05:00,72.1,63.8,29.89,SSW,202,9.8,13.9,75,0.00,,,0.00,WUHU21623XXSP,2013-05-19 14:05:00,
2013-05-19 09:10:00,72.5,64.5,29.88,SSW,202,8.9,12.1,76,0.00,,,0.00,WUHU21623XXSP,2013-05-19 14:10:00,
2013-05-19 09:15:00,72.7,64.3,29.88,SSW,202,8.1,12.1,75,0.00,,,0.00,WUHU21623XXSP,2013-05-19 14:15:00,
2013-05-19 09:20:00,73.2,64.5,29.88,SW,225,3.1,12.1,74,0.00,,,0.00,WUHU21623XXSP,2013-05-19 14:20:00,
2013-05-19 09:25:00,73.9,65.2,29.89,South,180,6.3,9.6,74,0.00,,,0.00,WUHU21623XXSP,2013-05-19 14:25:00,
2013-05-19 09:31:00,73.9,64.8,29.89,South,180,3.8,10.1,73,0.00,,,0.00,WUHU21623XXSP,2013-05-19 14:31:00,
2013-05-19 09:36:00,74.1,64.9,29.88,South,180,6.7,10.1,73,0.00,,,0.00,WUHU21623XXSP,2013-05-19 14:36:00,
2013-05-19 09:41:00,74.1,64.9,29.88,SSW,202,10.1,10.1,73,0.00,,,0.00,WUHU21623XXSP,2013-05-19 14:41:00,
2013-05-19 09:46:00,74.1,64.9,29.88,South,180,4.5,11.4,73,0.00,,,0.00,WUHU21623XXSP,2013-05-19 14:46:00,
2013-05-19 09:51:00,74.5,65.3,29.86,South,180,10.3,11.4,73,0.00,,,0.00,WUHU21623XXSP,2013-05-19 14:51:00,
2013-05-19 09:56:00,75.4,65.7,29.86,SSE,157,0.9,10.3,72,0.00,,,0.00,WUHU21623XXSP,2013-05-19 14:56:00,
2013-05-19 10:01:00,75.6,65.3,29.86,SE,135,5.6,12.3,71,0.00,,,0.00,WUHU21623XXSP,2013-05-19 15:01:00,
2013-05-19 10:06:00,75.9,65.5,29.86,SSW,202,10.5,12.8,70,0.00,,,0.00,WUHU21623XXSP,2013-05-19 15:06:00,
2013-05-19 10:11:00,75.9,65.0,29.86,SSW,202,2.7,12.8,69,0.00,,,0.00,WUHU21623XXSP,2013-05-19 15:11:00,
2013-05-19 10:16:00,76.6,66.2,29.86,South,180,3.8,12.8,69,0.00,,,0.00,WUHU21623XXSP,2013-05-19 15:16:00,
2013-05-19 10:21:00,76.3,64.9,29.86,SSW,202,6.0,11.4,68,0.00,,,0.00,WUHU21623XXSP,2013-05-19 15:21:00,
2013-05-19 10:26:00,76.8,65.9,29.86,South,180,6.5,11.4,69,0.00,,,0.00,WUHU21623XXSP,2013-05-19 15:26:00,
2013-05-19 10:31:00,77.5,66.1,29.86,NE,45,1.1,8.9,68,0.00,,,0.00,WUHU21623XXSP,2013-05-19 15:31:00,
2013-05-19 10:36:00,77.7,65.4,29.84,SSW,202,10.5,10.5,66,0.00,,,0.00,WUHU21623XXSP,2013-05-19 15:36:00,
2013-05-19 10:41:00,76.8,64.6,29.85,SSW,202,6.0,10.5,66,0.00,,,0.00,WUHU21623XXSP,2013-05-19 15:41:00,
2013-05-19 10:46:00,76.8,65.0,29.84,SSW,202,4.5,8.5,67,0.00,,,0.00,WUHU21623XXSP,2013-05-19 15:46:00,
2013-05-19 10:51:00,76.8,65.0,29.85,SSE,157,2.5,10.5,67,0.00,,,0.00,WUHU21623XXSP,2013-05-19 15:51:00,
2013-05-19 10:56:00,76.3,64.5,29.84,SW,225,3.8,11.9,67,0.00,,,0.00,WUHU21623XXSP,2013-05-19 15:56:00,
2013-05-19 11:01:00,76.3,64.5,29.85,South,180,2.5,12.8,67,0.00,,,0.00,WUHU21623XXSP,2013-05-19 16:01:00,
2013-05-19 11:06:00,76.6,65.3,29.85,SW,225,5.4,12.8,68,0.00,,,0.00,WUHU21623XXSP,2013-05-19 16:06:00,
2013-05-19 11:11:00,76.8,65.0,29.86,SSW,202,2.2,9.2,67,0.00,,,0.00,WUHU21623XXSP,2013-05-19 16:11:00,
2013-05-19 11:16:00,76.8,64.6,29.85,SSW,202,1.1,9.8,66,0.00,,,0.00,WUHU21623XXSP,2013-05-19 16:16:00,
2013-05-19 11:21:00,77.0,65.0,29.85,South,180,1.1,11.4,67,0.00,,,0.00,WUHU21623XXSP,2013-05-19 16:21:00,
2013-05-19 11:26:00,77.4,65.5,29.85,West,270,3.4,11.4,67,0.00,,,0.00,WUHU21623XXSP,2013-05-19 16:26:00,
2013-05-19 11:31:00,77.2,64.9,29.83,SW,225,5.4,8.5,66,0.00,,,0.00,WUHU21623XXSP,2013-05-19 16:31:00,
2013-05-19 11:36:00,77.0,64.3,29.83,SSW,202,2.7,8.5,65,0.00,,,0.00,WUHU21623XXSP,2013-05-19 16:36:00,
2013-05-19 11:41:00,77.0,64.8,29.83,SSW,202,5.1,8.7,66,0.00,,,0.00,WUHU21623XXSP,2013-05-19 16:41:00,
2013-05-19 11:46:00,77.4,64.7,29.83,SSW,202,6.0,10.5,65,0.00,,,0.00,WUHU21623XXSP,2013-05-19 16:46:00,
2013-05-19 11:51:00,77.7,65.4,29.82,SE,135,4.5,10.5,66,0.00,,,0.00,WUHU21623XXSP,2013-05-19 16:51:00,
2013-05-19 11:56:00,77.7,64.5,29.81,ENE,67,4.3,8.1,64,0.00,,,0.00,WUHU21623XXSP,2013-05-19 16:56:00,
2013-05-19 12:01:00,77.9,64.7,29.80,ESE,112,2.0,5.4,64,0.00,,,0.00,WUHU21623XXSP,2013-05-19 17:01:00,
2013-05-19 12:06:00,78.6,64.5,29.79,ENE,67,4.0,5.4,62,0.00,,,0.00,WUHU21623XXSP,2013-05-19 17:06:00,
2013-05-19 12:11:00,78.6,65.0,29.78,NW,315,3.8,6.9,63,0.00,,,0.00,WUHU21623XXSP,2013-05-19 17:11:00,
2013-05-19 12:16:00,78.6,65.4,29.77,SSW,202,2.0,6.9,64,0.00,,,0.00,WUHU21623XXSP,2013-05-19 17:16:00,
2013-05-19 12:21:00,78.8,65.3,29.76,SSE,157,3.8,8.5,63,0.00,,,0.00,WUHU21623XXSP,2013-05-19 17:21:00,
2013-05-19 12:26:00,79.0,64.9,29.76,WNW,292,0.0,8.5,62,0.00,,,0.00,WUHU21623XXSP,2013-05-19 17:26:00,
2013-05-19 12:31:00,79.5,64.9,29.76,ESE,112,6.0,8.5,61,0.00,,,0.00,WUHU21623XXSP,2013-05-19 17:31:00,
2013-05-19 12:36:00,79.7,65.1,29.76,South,180,7.6,7.6,61,0.00,,,0.00,WUHU21623XXSP,2013-05-19 17:36:00,
2013-05-19 12:41:00,80.4,65.8,29.77,SSW,202,2.0,11.6,61,0.00,,,0.00,WUHU21623XXSP,2013-05-19 17:41:00,
2013-05-19 12:46:00,81.1,65.4,29.76,SE,135,9.2,11.6,59,0.00,,,0.00,WUHU21623XXSP,2013-05-19 17:46:00,
2013-05-19 12:51:00,81.1,65.4,29.75,NNW,337,1.6,9.2,59,0.00,,,0.00,WUHU21623XXSP,2013-05-19 17:51:00,
2013-05-19 12:56:00,81.3,65.6,29.75,SSW,202,0.0,9.4,59,0.00,,,0.00,WUHU21623XXSP,2013-05-19 17:56:00,
2013-05-19 13:01:00,81.7,65.9,29.75,ESE,112,4.3,14.1,59,0.00,,,0.00,WUHU21623XXSP,2013-05-19 18:01:00,
2013-05-19 13:06:00,81.9,66.5,29.75,SE,135,6.3,14.1,60,0.00,,,0.00,WUHU21623XXSP,2013-05-19 18:06:00,
2013-05-19 13:11:00,81.5,65.8,29.75,ENE,67,5.8,11.4,59,0.00,,,0.00,WUHU21623XXSP,2013-05-19 18:11:00,
2013-05-19 13:16:00,81.3,66.6,29.75,SE,135,9.2,15.9,61,0.00,,,0.00,WUHU21623XXSP,2013-05-19 18:16:00,
2013-05-19 13:21:00,81.3,65.6,29.75,SW,225,4.7,15.9,59,0.00,,,0.00,WUHU21623XXSP,2013-05-19 18:21:00,
2013-05-19 13:26:00,81.9,66.1,29.75,ESE,112,7.6,10.3,58,0.00,,,0.00,WUHU21623XXSP,2013-05-19 18:26:00,
2013-05-19 13:31:00,81.5,64.7,29.75,South,180,3.8,11.0,57,0.00,,,0.00,WUHU21623XXSP,2013-05-19 18:31:00,
2013-05-19 13:36:00,81.0,64.8,29.75,SSW,202,3.1,11.0,58,0.00,,,0.00,WUHU21623XXSP,2013-05-19 18:36:00,
2013-05-19 13:41:00,81.0,64.2,29.75,SSW,202,4.7,11.0,57,0.00,,,0.00,WUHU21623XXSP,2013-05-19 18:41:00,
2013-05-19 13:46:00,81.1,64.4,29.76,South,180,11.4,12.8,57,0.00,,,0.00,WUHU21623XXSP,2013-05-19 18:46:00,
2013-05-19 13:51:00,81.0,64.8,29.77,SSW,202,3.1,12.8,58,0.00,,,0.00,WUHU21623XXSP,2013-05-19 18:51:00,
2013-05-19 13:56:00,80.4,63.8,29.77,SSW,202,16.3,18.8,57,0.00,,,0.00,WUHU21623XXSP,2013-05-19 18:56:00,
2013-05-19 14:01:00,80.4,63.8,29.77,SSW,202,7.8,18.8,57,0.00,,,0.00,WUHU21623XXSP,2013-05-19 19:01:00,
2013-05-19 14:06:00,81.0,63.7,29.78,SSW,202,10.3,18.1,56,0.00,,,0.00,WUHU21623XXSP,2013-05-19 19:06:00,
2013-05-19 14:11:00,80.6,63.9,29.78,SSW,202,6.3,18.1,57,0.00,,,0.00,WUHU21623XXSP,2013-05-19 19:11:00,
2013-05-19 14:16:00,80.8,64.1,29.78,South,180,9.6,15.9,57,0.00,,,0.00,WUHU21623XXSP,2013-05-19 19:16:00,
2013-05-19 14:21:00,81.3,65.1,29.78,South,180,8.5,15.9,58,0.00,,,0.00,WUHU21623XXSP,2013-05-19 19:21:00,
2013-05-19 14:26:00,82.4,66.1,29.78,SSW,202,0.0,11.2,58,0.00,,,0.00,WUHU21623XXSP,2013-05-19 19:26:00,
2013-05-19 14:31:00,82.8,65.9,29.78,SW,225,6.7,13.0,57,0.00,,,0.00,WUHU21623XXSP,2013-05-19 19:31:00,
2013-05-19 14:36:00,83.1,66.3,29.78,SSW,202,12.1,13.0,57,0.00,,,0.00,WUHU21623XXSP,2013-05-19 19:36:00,
2013-05-19 14:41:00,82.9,64.5,29.79,SW,225,16.6,16.8,54,0.00,,,0.00,WUHU21623XXSP,2013-05-19 19:41:00,
2013-05-19 14:46:00,82.8,63.8,29.79,South,180,9.6,19.2,53,0.00,,,0.00,WUHU21623XXSP,2013-05-19 19:46:00,
2013-05-19 14:51:00,82.6,64.7,29.79,SSE,157,11.2,19.2,55,0.00,,,0.00,WUHU21623XXSP,2013-05-19 19:51:00,
2013-05-19 14:56:00,82.6,63.6,29.79,SSE,157,6.9,16.3,53,0.00,,,0.00,WUHU21623XXSP,2013-05-19 19:56:00,
2013-05-19 15:01:00,82.9,64.0,29.78,South,180,14.5,18.3,53,0.00,,,0.00,WUHU21623XXSP,2013-05-19 20:01:00,
2013-05-19 15:06:00,82.9,64.0,29.77,South,180,4.3,18.3,53,0.00,,,0.00,WUHU21623XXSP,2013-05-19 20:06:00,
2013-05-19 15:11:00,83.8,65.4,29.77,ESE,112,2.7,15.0,54,0.00,,,0.00,WUHU21623XXSP,2013-05-19 20:11:00,
2013-05-19 15:16:00,83.5,64.4,29.77,SSW,202,6.0,12.5,52,0.00,,,0.00,WUHU21623XXSP,2013-05-19 20:16:00,
2013-05-19 15:21:00,83.5,65.0,29.77,SSE,157,11.9,15.0,54,0.00,,,0.00,WUHU21623XXSP,2013-05-19 20:21:00,
2013-05-19 15:26:00,83.8,64.9,29.77,SSW,202,11.0,15.0,53,0.00,,,0.00,WUHU21623XXSP,2013-05-19 20:26:00,
2013-05-19 15:31:00,84.4,65.4,29.78,SW,225,7.2,11.2,53,0.00,,,0.00,WUHU21623XXSP,2013-05-19 20:31:00,
2013-05-19 15:36:00,84.0,64.5,29.78,SSE,157,5.6,15.9,52,0.00,,,0.00,WUHU21623XXSP,2013-05-19 20:36:00,
2013-05-19 15:41:00,84.4,64.9,29.78,SSE,157,6.9,15.9,52,0.00,,,0.00,WUHU21623XXSP,2013-05-19 20:41:00,
2013-05-19 15:46:00,84.2,65.2,29.78,SSE,157,1.8,15.2,53,0.00,,,0.00,WUHU21623XXSP,2013-05-19 20:46:00,
2013-05-19 15:51:00,84.2,64.7,29.78,SSW,202,6.5,15.7,52,0.00,,,0.00,WUHU21623XXSP,2013-05-19 20:51:00,
2013-05-19 15:56:00,84.2,65.2,29.78,SSW,202,8.1,15.7,53,0.00,,,0.00,WUHU21623XXSP,2013-05-19 20:56:00,
2013-05-19 16:01:00,83.8,64.9,29.78,SSE,157,5.1,13.6,53,0.00,,,0.00,WUHU21623XXSP,2013-05-19 21:01:00,
2013-05-19 16:06:00,83.8,65.4,29.79,SW,225,8.9,14.1,54,0.00,,,0.00,WUHU21623XXSP,2013-05-19 21:06:00,
2013-05-19 16:11:00,84.7,66.3,29.78,South,180,11.0,14.3,54,0.00,,,0.00,WUHU21623XXSP,2013-05-19 21:11:00,
2013-05-19 16:16:00,84.0,64.5,29.78,SSW,202,11.9,15.4,52,0.00,,,0.00,WUHU21623XXSP,2013-05-19 21:16:00,
2013-05-19 16:21:00,82.6,64.3,29.78,SW,225,13.0,15.4,54,0.00,,,0.00,WUHU21623XXSP,2013-05-19 21:21:00,
2013-05-19 16:26:00,81.3,60.9,29.79,SW,225,11.6,19.5,50,0.00,,,0.00,WUHU21623XXSP,2013-05-19 21:26:00,
2013-05-19 16:31:00,80.2,59.9,29.78,South,180,14.1,19.5,50,0.00,,,0.00,WUHU21623XXSP,2013-05-19 21:31:00,
2013-05-19 16:36:00,78.4,59.3,29.77,SSE,157,4.7,18.8,52,0.00,,,0.00,WUHU21623XXSP,2013-05-19 21:36:00,
2013-05-19 16:41:00,73.4,59.1,29.76,ESE,112,0.9,14.8,61,0.02,,,0.02,WUHU21623XXSP,2013-05-19 21:41:00,
2013-05-19 16:46:00,72.0,60.4,29.75,ENE,67,1.1,6.7,67,0.02,,,0.02,WUHU21623XXSP,2013-05-19 21:46:00,
2013-05-19 16:51:00,70.7,60.0,29.74,East,90,0.0,2.2,69,0.02,,,0.02,WUHU21623XXSP,2013-05-19 21:51:00,
2013-05-19 16:56:00,69.4,59.6,29.73,ENE,67,0.0,2.0,71,0.02,,,0.02,WUHU21623XXSP,2013-05-19 21:56:00,
2013-05-19 17:01:00,68.7,60.4,29.72,SE,135,0.0,1.8,74,0.02,,,0.02,WUHU21623XXSP,2013-05-19 22:01:00,
2013-05-19 17:06:00,69.1,60.8,29.73,ENE,67,1.8,5.1,75,0.02,,,0.02,WUHU21623XXSP,2013-05-19 22:06:00,
2013-05-19 17:11:00,69.4,61.5,29.73,ESE,112,0.0,5.1,76,0.02,,,0.02,WUHU21623XXSP,2013-05-19 22:11:00,
2013-05-19 17:16:00,69.6,62.0,29.72,SE,135,0.0,2.2,77,0.02,,,0.02,WUHU21623XXSP,2013-05-19 22:16:00,
2013-05-19 17:21:00,69.6,62.4,29.72,SE,135,0.0,2.7,78,0.02,,,0.02,WUHU21623XXSP,2013-05-19 22:21:00,
2013-05-19 17:26:00,70.0,62.7,29.72,South,180,0.0,2.7,78,0.02,,,0.02,WUHU21623XXSP,2013-05-19 22:26:00,
2013-05-19 17:31:00,70.3,63.5,29.72,ESE,112,0.0,1.8,79,0.02,,,0.02,WUHU21623XXSP,2013-05-19 22:31:00,
2013-05-19 17:36:00,71.2,64.0,29.72,East,90,0.0,2.0,78,0.02,,,0.02,WUHU21623XXSP,2013-05-19 22:36:00,
2013-05-19 17:41:00,71.4,64.2,29.71,SE,135,0.0,2.0,78,0.00,,,0.02,WUHU21623XXSP,2013-05-19 22:41:00,
2013-05-19 17:46:00,72.1,64.9,29.71,South,180,0.0,2.0,78,0.00,,,0.02,WUHU21623XXSP,2013-05-19 22:46:00,
2013-05-19 17:51:00,73.6,65.9,29.70,SSE,157,2.0,3.6,77,0.00,,,0.02,WUHU21623XXSP,2013-05-19 22:51:00,
2013-05-19 17:56:00,74.1,65.7,29.70,NE,45,0.0,3.6,74,0.00,,,0.02,WUHU21623XXSP,2013-05-19 22:56:00,
2013-05-19 18:01:00,75.2,64.8,29.70,WNW,292,0.0,3.1,70,0.00,,,0.02,WUHU21623XXSP,2013-05-19 23:01:00,
2013-05-19 18:06:00,76.3,64.5,29.70,East,90,0.0,3.1,67,0.00,,,0.02,WUHU21623XXSP,2013-05-19 23:06:00,
2013-05-19 18:11:00,77.2,63.6,29.69,SSE,157,0.0,3.4,63,0.00,,,0.02,WUHU21623XXSP,2013-05-19 23:11:00,
2013-05-19 18:16:00,77.5,63.5,29.69,ESE,112,0.0,3.6,62,0.00,,,0.02,WUHU21623XXSP,2013-05-19 23:16:00,
2013-05-19 18:21:00,77.7,64.1,29.70,ENE,67,0.0,3.6,63,0.00,,,0.02,WUHU21623XXSP,2013-05-19 23:21:00,
2013-05-19 18:26:00,77.7,64.1,29.69,North,0,0.0,3.1,63,0.00,,,0.02,WUHU21623XXSP,2013-05-19 23:26:00,
2013-05-19 18:31:00,77.9,64.7,29.69,SE,135,0.0,1.8,64,0.00,,,0.02,WUHU21623XXSP,2013-05-19 23:31:00,
2013-05-19 18:36:00,78.3,65.1,29.69,West,270,0.0,1.3,64,0.00,,,0.02,WUHU21623XXSP,2013-05-19 23:36:00,
2013-05-19 18:41:00,78.1,65.3,29.69,WNW,292,0.0,1.8,65,0.00,,,0.02,WUHU21623XXSP,2013-05-19 23:41:00,
2013-05-19 18:46:00,77.9,65.6,29.69,SSW,202,0.0,3.8,66,0.00,,,0.02,WUHU21623XXSP,2013-05-19 23:46:00,
2013-05-19 18:51:00,77.7,65.4,29.69,ESE,112,1.3,3.8,66,0.00,,,0.02,WUHU21623XXSP,2013-05-19 23:51:00,
2013-05-19 18:56:00,77.7,65.9,29.69,NNW,337,0.0,2.5,67,0.00,,,0.02,WUHU21623XXSP,2013-05-19 23:56:00,
2013-05-19 19:01:00,77.7,65.9,29.70,East,90,0.0,4.5,67,0.00,,,0.02,WUHU21623XXSP,2013-05-20 00:01:00,
2013-05-19 19:06:00,77.7,65.9,29.69,WNW,292,0.0,4.5,67,0.00,,,0.02,WUHU21623XXSP,2013-05-20 00:06:00,
2013-05-19 19:11:00,77.5,66.1,29.69,NNE,22,0.0,3.6,68,0.00,,,0.02,WUHU21623XXSP,2013-05-20 00:11:00,
2013-05-19 19:16:00,77.4,66.0,29.69,SE,135,2.2,4.0,68,0.00,,,0.02,WUHU21623XXSP,2013-05-20 00:16:00,
2013-05-19 19:21:00,77.4,66.0,29.70,SE,135,0.0,4.0,68,0.00,,,0.02,WUHU21623XXSP,2013-05-20 00:21:00,
2013-05-19 19:26:00,76.8,65.9,29.70,West,270,0.0,3.6,69,0.00,,,0.02,WUHU21623XXSP,2013-05-20 00:26:00,
2013-05-19 19:31:00,76.6,65.3,29.70,WSW,247,0.9,4.7,68,0.00,,,0.02,WUHU21623XXSP,2013-05-20 00:31:00,
2013-05-19 19:36:00,76.3,64.9,29.71,ESE,112,0.0,4.7,68,0.00,,,0.02,WUHU21623XXSP,2013-05-20 00:36:00,
2013-05-19 19:41:00,75.9,65.0,29.72,North,0,2.7,3.4,69,0.00,,,0.02,WUHU21623XXSP,2013-05-20 00:41:00,
2013-05-19 19:46:00,75.7,64.8,29.71,East,90,0.9,3.8,69,0.00,,,0.02,WUHU21623XXSP,2013-05-20 00:46:00,
2013-05-19 19:51:00,75.7,64.8,29.71,East,90,0.0,5.8,69,0.00,,,0.02,WUHU21623XXSP,2013-05-20 00:51:00,
2013-05-19 19:56:00,75.4,64.5,29.72,ESE,112,0.9,5.8,69,0.00,,,0.02,WUHU21623XXSP,2013-05-20 00:56:00,
2013-05-19 20:01:00,75.0,64.6,29.72,ESE,112,2.0,3.1,70,0.00,,,0.02,WUHU21623XXSP,2013-05-20 01:01:00,
2013-05-19 20:06:00,74.8,64.4,29.72,SSE,157,0.0,3.4,70,0.00,,,0.02,WUHU21623XXSP,2013-05-20 01:06:00,
2013-05-19 20:11:00,74.5,64.5,29.72,WNW,292,0.0,3.4,71,0.00,,,0.02,WUHU21623XXSP,2013-05-20 01:11:00,
2013-05-19 20:16:00,74.3,64.3,29.72,SSE,157,2.7,5.4,71,0.00,,,0.02,WUHU21623XXSP,2013-05-20 01:16:00,
2013-05-19 20:21:00,74.1,64.2,29.72,WSW,247,0.0,6.9,71,0.00,,,0.02,WUHU21623XXSP,2013-05-20 01:21:00,
2013-05-19 20:26:00,74.1,64.2,29.72,WSW,247,0.0,6.9,71,0.00,,,0.02,WUHU21623XXSP,2013-05-20 01:26:00,
2013-05-19 20:31:00,74.1,64.2,29.72,ESE,112,1.1,5.6,71,0.00,,,0.02,WUHU21623XXSP,2013-05-20 01:31:00,
2013-05-19 20:36:00,73.9,64.4,29.71,WSW,247,0.0,3.4,72,0.00,,,0.02,WUHU21623XXSP,2013-05-20 01:36:00,
2013-05-19 20:41:00,73.8,64.2,29.71,South,180,0.0,3.4,72,0.00,,,0.02,WUHU21623XXSP,2013-05-20 01:41:00,
2013-05-19 20:46:00,73.8,64.2,29.71,South,180,2.2,4.3,72,0.00,,,0.02,WUHU21623XXSP,2013-05-20 01:46:00,
2013-05-19 20:51:00,73.9,64.4,29.71,WSW,247,0.0,4.3,72,0.00,,,0.02,WUHU21623XXSP,2013-05-20 01:51:00,
2013-05-19 20:56:00,73.9,64.0,29.72,SSE,157,0.9,3.6,71,0.00,,,0.02,WUHU21623XXSP,2013-05-20 01:56:00,
2013-05-19 21:01:00,73.6,63.7,29.71,West,270,0.0,2.5,71,0.00,,,0.02,WUHU21623XXSP,2013-05-20 02:01:00,
2013-05-19 21:06:00,73.6,63.9,29.71,NNE,22,0.0,2.7,72,0.00,,,0.02,WUHU21623XXSP,2013-05-20 02:06:00,
2013-05-19 21:11:00,73.6,63.7,29.71,South,180,0.0,4.0,71,0.00,,,0.02,WUHU21623XXSP,2013-05-20 02:11:00,
2013-05-19 21:16:00,73.8,63.8,29.71,WSW,247,0.0,6.9,71,0.00,,,0.02,WUHU21623XXSP,2013-05-20 02:16:00,
2013-05-19 21:21:00,73.9,63.6,29.70,East,90,0.7,6.9,70,0.00,,,0.02,WUHU21623XXSP,2013-05-20 02:21:00,
2013-05-19 21:26:00,74.1,63.8,29.71,SSW,202,8.9,8.9,70,0.00,,,0.02,WUHU21623XXSP,2013-05-20 02:26:00,
2013-05-19 21:31:00,74.1,63.3,29.70,ESE,112,2.5,8.9,69,0.00,,,0.02,WUHU21623XXSP,2013-05-20 02:31:00,
2013-05-19 21:36:00,73.9,63.6,29.70,ESE,112,3.8,5.1,70,0.00,,,0.02,WUHU21623XXSP,2013-05-20 02:36:00,
2013-05-19 21:41:00,74.3,63.5,29.70,SW,225,1.6,7.8,69,0.00,,,0.02,WUHU21623XXSP,2013-05-20 02:41:00,
2013-05-19 21:46:00,74.5,63.2,29.71,SW,225,5.6,7.8,68,0.00,,,0.02,WUHU21623XXSP,2013-05-20 02:46:00,
2013-05-19 21:51:00,75.0,63.3,29.71,WSW,247,1.6,7.4,67,0.00,,,0.02,WUHU21623XXSP,2013-05-20 02:51:00,
2013-05-19 21:56:00,75.0,63.3,29.71,SSW,202,5.8,9.2,67,0.00,,,0.02,WUHU21623XXSP,2013-05-20 02:56:00,
2013-05-19 22:01:00,75.0,63.3,29.71,SSW,202,5.8,9.2,67,0.00,,,0.02,WUHU21623XXSP,2013-05-20 03:01:00,
2013-05-19 22:06:00,75.2,63.5,29.71,ENE,67,4.0,8.1,67,0.00,,,0.02,WUHU21623XXSP,2013-05-20 03:06:00,
2013-05-19 22:11:00,75.4,63.6,29.70,SE,135,5.6,8.1,67,0.00,,,0.02,WUHU21623XXSP,2013-05-20 03:11:00,
2013-05-19 22:16:00,75.0,63.3,29.70,SW,225,6.0,7.6,67,0.00,,,0.02,WUHU21623XXSP,2013-05-20 03:16:00,
2013-05-19 22:21:00,75.4,63.2,29.71,South,180,9.2,15.7,66,0.00,,,0.02,WUHU21623XXSP,2013-05-20 03:21:00,
2013-05-19 22:26:00,75.6,63.4,29.71,South,180,5.1,15.7,66,0.00,,,0.02,WUHU21623XXSP,2013-05-20 03:26:00,
2013-05-19 22:31:00,75.4,63.2,29.70,SSW,202,7.2,22.6,66,0.00,,,0.02,WUHU21623XXSP,2013-05-20 03:31:00,
2013-05-19 22:36:00,75.0,62.9,29.70,SW,225,8.1,22.6,66,0.00,,,0.02,WUHU21623XXSP,2013-05-20 03:36:00,
2013-05-19 22:41:00,74.8,62.7,29.70,SW,225,5.8,15.0,66,0.00,,,0.02,WUHU21623XXSP,2013-05-20 03:41:00,
2013-05-19 22:46:00,74.7,62.5,29.68,ENE,67,4.5,13.9,66,0.00,,,0.02,WUHU21623XXSP,2013-05-20 03:46:00,
2013-05-19 22:51:00,74.5,61.9,29.67,WSW,247,2.2,13.9,65,0.00,,,0.02,WUHU21623XXSP,2013-05-20 03:51:00,
2013-05-19 22:56:00,74.1,61.6,29.68,SW,225,5.8,12.1,65,0.00,,,0.02,WUHU21623XXSP,2013-05-20 03:56:00,
2013-05-19 23:01:00,74.1,61.6,29.68,SSW,202,10.5,11.6,65,0.00,,,0.02,WUHU21623XXSP,2013-05-20 04:01:00,
2013-05-19 23:06:00,74.5,60.6,29.68,South,180,10.1,21.5,62,0.00,,,0.02,WUHU21623XXSP,2013-05-20 04:06:00,
2013-05-19 23:11:00,74.5,60.2,29.67,SSE,157,4.9,21.5,61,0.00,,,0.02,WUHU21623XXSP,2013-05-20 04:11:00,
2013-05-19 23:16:00,74.5,59.7,29.67,SSW,202,11.4,11.4,60,0.00,,,0.02,WUHU21623XXSP,2013-05-20 04:16:00,
2013-05-19 23:21:00,74.7,59.4,29.66,SSE,157,8.5,11.4,59,0.00,,,0.02,WUHU21623XXSP,2013-05-20 04:21:00,
2013-05-19 23:26:00,74.8,59.1,29.65,SSW,202,6.3,10.5,58,0.00,,,0.02,WUHU21623XXSP,2013-05-20 04:26:00,
2013-05-19 23:31:00,74.5,58.7,29.64,SSW,202,1.6,8.3,58,0.00,,,0.02,WUHU21623XXSP,2013-05-20 04:31:00,
2013-05-19 23:36:00,74.1,58.4,29.62,SSW,202,2.5,8.3,58,0.00,,,0.02,WUHU21623XXSP,2013-05-20 04:36:00,
2013-05-19 23:41:00,74.3,58.0,29.61,NNE,22,0.9,6.9,57,0.00,,,0.02,WUHU21623XXSP,2013-05-20 04:41:00,
2013-05-19 23:46:00,74.5,57.7,29.61,ESE,112,1.6,6.9,56,0.00,,,0.02,WUHU21623XXSP,2013-05-20 04:46:00,
2013-05-19 23:51:00,74.5,57.7,29.62,ENE,67,0.0,6.7,56,0.00,,,0.02,WUHU21623XXSP,2013-05-20 04:51:00,
2013-05-19 23:56:00,73.9,57.7,29.62,SSE,157,5.4,6.5,57,0.00,,,0.02,WUHU21623XXSP,2013-05-20 04:56:00,